Regional Weather Roundup
Issued by NWS

Home | Current Version | Previous Version | Graphics & Text | Print | Product List | Glossary On
Versions: 1 2 3 4 5 6 7 8 9 10 11 12 13 14 15 16 17 18 19 20 21 22 23 24 25 26 27 28
000
ASUS45 KSLC 252310
RWRUT

UTAH REGIONAL WEATHER ROUNDUP
NATIONAL WEATHER SERVICE SALT LAKE CITY UT
500 PM MDT MON JUL 25 2016

UTZ001>011-023>025-260000-

NORTHERN UTAH

CITY           SKY/WX    TMP DP  RH WIND       PRES   REMARKS
BRIGHAM CITY     N/A     95  23   7 CALM      30.02F
HILL AFB       SUNNY     95  33  11 W7        30.07F
LOGAN          SUNNY     96  37  12 NE6       30.03F HX  91
OGDEN          SUNNY     96  29   9 NW6       30.03F HX  90
PROVO AIRPORT  NOT AVBL
SALT LAKE CITY MOSUNNY  100  35  10 N12       29.99F HX  94
VERNAL         CLOUDY    90  30  11 W13G25    30.13F
WENDOVER       SUNNY     95  32  11 SE8       30.01F HX  90
HEBER CITY     PTSUNNY   90  30  12 NW3G10    30.11F

$$

UTZ012>022-026-027-260000-

SOUTHERN/CENTRAL UTAH

CITY           SKY/WX    TMP DP  RH WIND       PRES   REMARKS
BLANDING       MOSUNNY   92  36  13 S8        30.23S
BRYCE CANYON   MOSUNNY   78  44  29 SE15      30.33F
CEDAR CITY     MOSUNNY   95  41  15 S14G21    30.12F HX  91
DELTA          MOSUNNY  100  27   7 S8G17     30.02S HX  93
MILFORD        PTSUNNY   92  39  15 CALM      30.06F
MOAB/CYNLANDS  PTSUNNY  100  38  11 W14       29.99F HX  95
PRICE          LGT RAIN  86  36  16 W9        30.23R
ST GEORGE      MOCLDY   106  48  14 W13G20    29.91F HX 102

$$

REGIONAL REPORTS     COLORADO/ARIZONA

CITY           SKY/WX    TMP DP  RH WIND       PRES   REMARKS
CRAIG, CO      CLOUDY    89  35  14 S16       30.19F
GRAND JUNCTION CLOUDY    96  40  14 S12       30.06F HX  92
RIFLE          SUNNY     94  32  11 NW17G24   30.15S
MONTROSE       CLOUDY    85  43  22 S15G24    30.20R
CORTEZ         CLOUDY    90  42  18 NW7       30.16F
PAGE, AZ       MOSUNNY  100  43  14 N9        30.01F HX  96
GRAND CANYON   PTSUNNY   75  51  43 S6        30.28R
KINGMAN        SUNNY    100  50  18 W13G22    29.99F HX  97
FLAGSTAFF      CLOUDY    61  59  93 W3        30.31F

$$

REGIONAL REPORTS    NEVADA/IDAHO/WYOMING

CITY           SKY/WX    TMP DP  RH WIND       PRES   REMARKS
LAS VEGAS, NV  MOSUNNY  109  32   7 VRB6      29.79F HX 101
ELY            SUNNY     94  24   8 SW10      30.15F
ELKO           SUNNY     97  10   4 SW10      30.07F HX  90
POCATELLO, ID  MOSUNNY   95  24   8 W10       30.06F
BURLEY         SUNNY     92  35  13 NW9       30.02F
EVANSTON, WY   CLOUDY    89  23   9 W12G30    30.25F
ROCK SPRINGS   CLOUDY    87  27  11 SW22G32   30.22F
KEMMERER         N/A     82  21  10 W14G25    30.26S

$$




USA.gov is the U.S. government's official web portal to all federal, state and local government web resources and services.